Roxboro, NC

8:45 PM EDT on March 28, 2017 (GMT -0400)
Person County

Weather History for KTDF - January, 2014

Change the Weather History Date:

Saturday, January 11, 2014

  Actual Average Record
Temperature  
Mean Temperature 50 °F -  
Max Temperature 62 °F 43 °F 69 °F (1963)
Min Temperature 37 °F 25 °F 0 °F (1982)
Degree Days  
Heating Degree Days 16    
Moisture  
Dew Point 50 °F    
Average Humidity 99    
Maximum Humidity 100    
Minimum Humidity 88    
Precipitation  
Precipitation 0.81 in - - ()
Sea Level Pressure  
Sea Level Pressure 29.79 in    
Wind  
Wind Speed 4 mph (SW)    
Max Wind Speed 18 mph    
Max Gust Speed 29 mph    
Visibility 6 miles    
Events Fog , Rain , Thunderstorm    
Averages and records for this station are not official NWS values.
T = Trace of Precipitation, MM = Missing Value Source: NWS Daily Summary

Daily Weather History Graph

Daily Weather History Graph

Search for Another Location

Airport or City:

Trip Planner

Search our weather history database for the weather conditions in past years. The results will help you decide how hot, cold, wet, or windy it might be!

Date:

Astronomy

Jan. 11, 2014 Rise Set
Actual Time 7:27 AM EST 5:20 PM EST
Civil Twilight 6:59 AM EST 5:48 PM EST
Nautical Twilight 6:27 AM EST 6:20 PM EST
Astronomical Twilight 5:56 AM EST 6:51 PM EST
Moon 2:02 PM EST (1/11) 3:32 AM EST (1/11)
Length of Visible Light 10h 49m
Length of Day
9h 53m
Waxing Gibbous, 83% of the Moon is Illuminated
Jan 11
Waxing Gibbous
Jan 15
Full
Jan 24
Last Quarter
Jan 30
New
Feb 6
First Quarter

Hourly Weather History & Observations

Time (EST) Temp. Windchill Dew Point Humidity Pressure Visibility Wind Dir Wind Speed Gust Speed Precip Events Conditions
12:15 AM 37.4 °F - 37.4 °F 100% 30.11 in 0.2 mi Calm Calm - N/A Fog Fog
12:35 AM 37.4 °F - 37.4 °F 100% 30.10 in 0.2 mi Calm Calm - N/A Fog Fog
12:55 AM 37.4 °F - 37.4 °F 100% 30.09 in 0.2 mi Calm Calm - N/A Rain Light Rain
1:15 AM 37.4 °F - 37.4 °F 100% 30.08 in 0.8 mi Calm Calm - 0.04 in Rain Heavy Rain
1:35 AM 37.4 °F - 37.4 °F 100% 30.06 in 4.0 mi Calm Calm - 0.05 in Rain Rain
1:55 AM 37.4 °F - 37.4 °F 100% 30.05 in 7.0 mi Calm Calm - 0.06 in Rain Rain
2:15 AM 37.4 °F - 37.4 °F 100% 30.04 in 7.0 mi Calm Calm - 0.01 in Rain Light Rain
2:35 AM 37.4 °F - 37.4 °F 100% 30.03 in 10.0 mi Calm Calm - 0.01 in   Heavy Drizzle
2:55 AM 37.4 °F - 37.4 °F 100% 30.03 in 7.0 mi Calm Calm - 0.03 in Rain Light Rain
3:15 AM 39.2 °F - 39.2 °F 100% 30.02 in 7.0 mi Calm Calm - N/A   Overcast
3:35 AM 39.2 °F - 39.2 °F 100% 30.00 in 4.0 mi Calm Calm - N/A   Overcast
3:55 AM 39.2 °F - 39.2 °F 100% 30.00 in 0.8 mi Calm Calm - N/A Rain Light Rain
4:15 AM 39.2 °F - 39.2 °F 100% 29.98 in 0.2 mi Calm Calm - N/A Fog Fog
4:35 AM 39.2 °F - 39.2 °F 100% 29.97 in 0.2 mi Calm Calm - N/A Fog Fog
4:55 AM 39.2 °F - 39.2 °F 100% 29.95 in 0.2 mi Calm Calm - N/A Fog Fog
5:15 AM 41.0 °F - 41.0 °F 100% 29.94 in 0.2 mi Calm Calm - N/A Fog Fog
5:35 AM 41.0 °F - 41.0 °F 100% 29.93 in 0.2 mi Calm Calm - N/A Fog Fog
5:55 AM 41.0 °F - 41.0 °F 100% 29.93 in 0.2 mi Calm Calm - N/A Fog Fog
6:15 AM 41.0 °F - 41.0 °F 100% 29.92 in 0.2 mi Calm Calm - N/A Fog Fog
6:35 AM 41.0 °F - 41.0 °F 100% 29.91 in 0.2 mi Calm Calm - N/A Fog Fog
6:55 AM 42.8 °F - 42.8 °F 100% 29.89 in 0.5 mi Calm Calm - N/A Fog Fog
7:15 AM 46.4 °F - 46.4 °F 100% 29.89 in 0.2 mi Calm Calm - N/A Fog Fog
7:35 AM 50.0 °F - 50.0 °F 100% 29.87 in 0.2 mi Calm Calm - N/A Fog Fog
7:55 AM 53.6 °F - 53.6 °F 100% 29.87 in 0.2 mi South 3.5 mph - N/A Fog Fog
8:15 AM 55.4 °F - 55.4 °F 100% 29.85 in 0.2 mi South 11.5 mph 19.6 mph N/A Fog Fog
8:35 AM 55.4 °F - 55.4 °F 100% 29.86 in 0.5 mi SSW 11.5 mph 18.4 mph N/A Fog , Thunderstorm Fog
8:55 AM 57.2 °F - 57.2 °F 100% 29.86 in 0.8 mi SSW 8.1 mph - N/A Thunderstorm Overcast
9:15 AM 50.0 °F - 50.0 °F 100% 29.88 in 2.0 mi NW 10.4 mph 23.0 mph 0.05 in Rain , Thunderstorm Heavy Thunderstorms and Rain
9:35 AM 46.4 °F 45.2 °F 46.4 °F 100% 29.88 in 5.0 mi South 3.5 mph - 0.11 in Rain Rain
9:55 AM 48.2 °F - 48.2 °F 100% 29.87 in 1.5 mi Calm Calm - 0.22 in Rain Heavy Rain
10:15 AM 51.8 °F - 51.8 °F 100% 29.82 in 5.0 mi South 5.8 mph - 0.05 in Rain Rain
10:35 AM 53.6 °F - 53.6 °F 100% 29.82 in 10.0 mi SSW 6.9 mph - 0.05 in   Light Drizzle
10:55 AM 55.4 °F - 55.4 °F 100% 29.80 in 7.0 mi South 8.1 mph - 0.06 in Rain Light Rain
11:15 AM 57.2 °F - 57.2 °F 100% 29.77 in 10.0 mi South 10.4 mph - N/A Rain Light Rain
11:35 AM 59.0 °F - 59.0 °F 100% 29.74 in 10.0 mi South 13.8 mph 19.6 mph 0.01 in Rain Light Rain
11:55 AM 60.8 °F - 60.8 °F 100% 29.72 in 10.0 mi South 11.5 mph 17.3 mph 0.01 in   Overcast
12:15 PM 62.6 °F - 62.6 °F 100% 29.69 in 10.0 mi South 12.7 mph 23.0 mph N/A   Overcast
12:35 PM 62.6 °F - 62.6 °F 100% 29.67 in 10.0 mi South 16.1 mph 23.0 mph N/A Thunderstorm Overcast
12:55 PM 62.6 °F - 62.6 °F 100% 29.66 in 10.0 mi SSW 18.4 mph 28.8 mph N/A   Overcast
1:15 PM 62.6 °F - 62.6 °F 100% 29.66 in 10.0 mi SW 12.7 mph 19.6 mph N/A Rain Light Rain
1:35 PM 55.4 °F - 55.4 °F 100% 29.68 in 10.0 mi NW 5.8 mph 20.7 mph N/A Rain Light Rain
1:55 PM 53.6 °F - 53.6 °F 100% 29.70 in 1.5 mi WNW 3.5 mph - 0.39 in Rain Heavy Rain
2:15 PM 53.6 °F - 53.6 °F 100% 29.70 in 10.0 mi WSW 3.5 mph - 0.02 in Rain Light Rain
2:35 PM 55.4 °F - 55.4 °F 100% 29.69 in 10.0 mi West 3.5 mph - 0.02 in   Mostly Cloudy
2:55 PM 55.4 °F - 55.4 °F 100% 29.69 in 10.0 mi West 5.8 mph - 0.02 in Rain Rain
3:15 PM 55.4 °F - 55.4 °F 100% 29.70 in 10.0 mi SW 8.1 mph - N/A   Light Drizzle
3:35 PM 53.6 °F - 53.6 °F 100% 29.69 in 10.0 mi SW 9.2 mph - N/A   Light Drizzle
3:55 PM 53.6 °F - 53.6 °F 100% 29.68 in 10.0 mi SW 10.4 mph - N/A Rain Light Rain
4:15 PM 53.6 °F - 53.6 °F 100% 29.67 in 10.0 mi SW 8.1 mph - N/A   Overcast
4:35 PM 53.6 °F - 53.6 °F 100% 29.64 in 10.0 mi SSW 10.4 mph - N/A Rain Light Rain
4:55 PM 53.6 °F - 53.6 °F 100% 29.58 in 10.0 mi SSE 8.1 mph - 0.02 in Rain Light Rain
5:15 PM 53.6 °F - 53.6 °F 100% 29.62 in 10.0 mi SSW 9.2 mph - N/A   Mostly Cloudy
5:35 PM 53.6 °F - 53.6 °F 100% 29.62 in 10.0 mi SSW 8.1 mph - N/A   Scattered Clouds
5:55 PM 53.6 °F - 53.6 °F 100% 29.62 in 10.0 mi SW 9.2 mph - N/A   Scattered Clouds
6:15 PM 53.6 °F - 53.6 °F 100% 29.62 in 10.0 mi SSW 6.9 mph - N/A   Clear
6:35 PM 53.6 °F - 53.6 °F 100% 29.61 in 10.0 mi SW 9.2 mph - N/A   Clear
6:55 PM 53.6 °F - 53.6 °F 100% 29.62 in 10.0 mi SW 8.1 mph - N/A   Clear
7:15 PM 53.6 °F - 53.6 °F 100% 29.62 in 10.0 mi SSW 8.1 mph - N/A   Clear
7:35 PM 53.6 °F - 53.6 °F 100% 29.62 in 10.0 mi SW 9.2 mph - N/A   Clear
7:55 PM 53.6 °F - 51.8 °F 94% 29.63 in 10.0 mi SW 8.1 mph - N/A   Mostly Cloudy
8:15 PM 53.6 °F - 53.6 °F 100% 29.64 in 10.0 mi WSW 8.1 mph - N/A   Overcast
8:35 PM 53.6 °F - 53.6 °F 100% 29.65 in 10.0 mi WSW 8.1 mph - N/A   Overcast
8:55 PM 53.6 °F - 53.6 °F 100% 29.66 in 10.0 mi WSW 8.1 mph - N/A   Overcast
9:15 PM 53.6 °F - 53.6 °F 100% 29.66 in 10.0 mi WSW 8.1 mph - N/A   Overcast
9:35 PM 53.6 °F - 53.6 °F 100% 29.65 in 10.0 mi WSW 6.9 mph - N/A   Overcast
9:55 PM 53.6 °F - 51.8 °F 94% 29.65 in 10.0 mi WSW 8.1 mph - N/A   Mostly Cloudy
10:15 PM 53.6 °F - 51.8 °F 94% 29.66 in 10.0 mi WSW 6.9 mph - N/A   Mostly Cloudy
10:35 PM 53.6 °F - 51.8 °F 94% 29.67 in 10.0 mi WSW 6.9 mph - N/A Rain Light Rain
10:55 PM 53.6 °F - 51.8 °F 94% 29.67 in 10.0 mi West 6.9 mph - N/A   Overcast
11:15 PM 53.6 °F - 51.8 °F 94% 29.67 in 10.0 mi West 5.8 mph - N/A   Overcast
11:35 PM 51.8 °F - 50.0 °F 94% 29.68 in 10.0 mi West 6.9 mph - N/A   Scattered Clouds
11:55 PM 51.8 °F - 48.2 °F 88% 29.69 in 10.0 mi West 4.6 mph - N/A   Mostly Cloudy